Location: Spor
(46.2167°N, 11.0500°E)
Time: 02:44:44
(UTC+00:00)

STARLINK-48 - Pass Details

Date: 07 June 2020
Orbit: 505 x 506 km, 53.0° (Epoch: 04 July)

Event Time Altitude Azimuth Distance (km) Brightness Sun altitude
Exits shadow 00:19:01 43° 139° (SE) 714 3.9 -19.5°
Drops below altitude 10° 00:22:41 10° 69° (ENE) 1,721 6.6 -19.3°
Sets 00:24:57 0° 62° (ENE) 2,609 7.8 -19.2°
